Hourly Data Report for October 02, 2017

All times are specified in Local Standard Time (LST). Add 1 hour to adjust for Daylight Saving Time where and when it is observed.

NORTH COWICHAN
BRITISH COLUMBIA

48°49'27.010" N
123°43'08.009" W
44.80 m
1015630
71927
VOO

Download Data

Hourly Data (October 2017)
Hourly Data Report for October 2, 2017
Temp Definition
°C
Dew Point Temp Definition
°C
Rel Hum Definition
%
Wind Dir Definition
10's deg

Wind Spd Definition
km/h
Visibility Definition
km
Stn Press Definition
kPa
Hmdx Definition


Wind Chill Definition


Weather Definition


TIME
00:00 5.2 4.1 92 0 1   101.51     LegendNANA
01:00 4.6 3.6 94 0 1   101.52     LegendNANA
02:00 4.2 3.3 94 0 1   101.52     LegendNANA
03:00 3.7 2.8 94 0 1   101.52     LegendNANA
04:00 3.6 2.7 94   0   101.57     LegendNANA
05:00 3.3 2.6 95   0   101.60     LegendNANA
06:00 3.2 2.4 94   0   101.59     LegendNANA
07:00 3.7 2.9 95 0 1   101.61     LegendNANA
08:00 7.4 4.3 81 18 2   101.62     LegendNANA
09:00 12.2 6.1 66 16 1   101.63     LegendNANA
10:00 14.6 6.5 58 28 4   101.64     LegendNANA
11:00 17.0 3.7 41 4 7   101.65     LegendNANA
12:00 17.3 2.4 37 4 7   101.67     LegendNANA
13:00 18.1 1.4 33 2 8   101.68     LegendNANA
14:00 18.7 0.7 30 3 6   101.66     LegendNANA
15:00 19.1 0.5 29 2 7   101.68     LegendNANA
16:00 18.8 -0.1 28 2 5   101.68     LegendNANA
17:00 17.7 1.3 33 34 2   101.70     LegendNANA
18:00 12.2 4.0 57   0   101.73     LegendNANA
19:00 9.9 3.2 63 31 2   101.79     LegendNANA
20:00 8.8 2.4 64 17 2   101.85     LegendNANA
21:00 7.3 2.5 72 13 2   101.90     LegendNANA
22:00 6.1 2.2 76 0 1   101.96     LegendNANA
23:00 4.7 1.9 82   0   101.99     LegendNANA

Notes on Data Quality.

Legend

  • E = Estimated
  • M = Missing
  • NA = Not Available
  • ‡ = Partner data that is not subject to review by the National Climate Archives
Date modified: